TimePDT,TemperatureF,Dew PointF,Humidity,Sea Level PressureIn,VisibilityMPH,Wind Direction,Wind SpeedMPH,Gust SpeedMPH,PrecipitationIn,Events,Conditions,WindDirDegrees,DateUTC
12:56 AM,79.0,53.1,40,29.89,10.0,NW,9.2,-,N/A,,Clear,320,2013-07-10 07:56:00
1:56 AM,75.0,53.1,46,29.88,10.0,NW,5.8,-,N/A,,Clear,320,2013-07-10 08:56:00
2:56 AM,73.9,51.1,45,29.88,10.0,NW,6.9,-,N/A,,Clear,320,2013-07-10 09:56:00
3:56 AM,72.0,51.1,48,29.89,10.0,WNW,5.8,-,N/A,,Clear,300,2013-07-10 10:56:00
4:56 AM,70.0,52.0,53,29.88,10.0,WNW,8.1,-,N/A,,Clear,300,2013-07-10 11:56:00
5:56 AM,69.1,52.0,54,29.89,10.0,West,5.8,-,N/A,,Clear,280,2013-07-10 12:56:00
6:56 AM,73.9,53.1,48,29.90,10.0,WNW,6.9,-,N/A,,Clear,290,2013-07-10 13:56:00
7:16 AM,75.2,53.6,47,29.90,10.0,NW,6.9,-,N/A,,Partly Cloudy,310,2013-07-10 14:16:00
7:56 AM,81.0,53.1,38,29.91,10.0,NW,6.9,-,N/A,,Partly Cloudy,310,2013-07-10 14:56:00
8:56 AM,88.0,50.0,27,29.92,10.0,North,6.9,-,N/A,,Partly Cloudy,10,2013-07-10 15:56:00
9:56 AM,91.9,51.1,25,29.91,10.0,NNE,8.1,-,N/A,,Scattered Clouds,20,2013-07-10 16:56:00
10:56 AM,93.9,51.1,23,29.91,10.0,NNE,8.1,-,N/A,,Mostly Cloudy,20,2013-07-10 17:56:00
11:56 AM,97.0,50.0,20,29.90,10.0,ENE,5.8,-,N/A,,Mostly Cloudy,70,2013-07-10 18:56:00
12:56 PM,102.0,51.1,18,29.88,10.0,WNW,8.1,-,N/A,,Mostly Cloudy,290,2013-07-10 19:56:00
1:56 PM,102.9,48.0,16,29.87,10.0,Variable,5.8,-,N/A,,Mostly Cloudy,0,2013-07-10 20:56:00
2:56 PM,102.0,50.0,17,29.85,10.0,ENE,5.8,-,N/A,,Overcast,70,2013-07-10 21:56:00
3:56 PM,102.0,52.0,19,29.83,10.0,North,5.8,-,N/A,,Overcast,10,2013-07-10 22:56:00
4:56 PM,102.0,55.0,21,29.82,10.0,ENE,5.8,-,N/A,,Overcast,60,2013-07-10 23:56:00
5:56 PM,100.0,57.9,25,29.81,10.0,North,8.1,-,N/A,,Overcast,10,2013-07-11 00:56:00
6:56 PM,97.0,55.0,24,29.80,10.0,North,6.9,-,N/A,,Mostly Cloudy,350,2013-07-11 01:56:00
7:56 PM,91.9,55.0,29,29.81,10.0,NW,6.9,-,N/A,,Overcast,310,2013-07-11 02:56:00
8:56 PM,91.0,55.0,29,29.82,10.0,NW,9.2,-,N/A,,Overcast,310,2013-07-11 03:56:00
9:56 PM,89.1,53.1,29,29.84,10.0,NW,8.1,-,N/A,,Overcast,310,2013-07-11 04:56:00
10:56 PM,87.1,53.1,31,29.84,10.0,NW,3.5,-,N/A,,Overcast,310,2013-07-11 05:56:00
11:56 PM,86.0,46.9,26,29.85,10.0,NNW,10.4,-,0.00,,Overcast,330,2013-07-11 06:56:00